User: anonymous
Location: Fort Wayne
(41.1310°N, 85.1290°W)
Time: 20:22:43
(UTC-04:00)
Language:

Cosmos 1953 - Orbit

View from above orbital plane
View from above orbital plane
View from above satellite
View from above satellite

Ground track
Ground track

The orbit data is extracted from the following two-line orbital elements,

1 19210U 88050A   14265.46788226  .00001951  00000-0  14584-3 0  5217
2 19210 082.5159 280.1522 0015834 067.1262 293.1633 15.02165845427692
Epoch (UTC): 22 September 2014 11:13:45
Eccentricity: 0.0015834
inclination: 82.5159°
perigee height: 549 km
apogee height: 571 km
right ascension of ascending node: 280.1522°
argument of perigee: 67.1262°
revolutions per day: 15.02165845
mean anomaly at epoch: 293.1633°
orbit number at epoch: 42769

The dashed part of the orbit path shows where the satellite is in the earth's shadow,  

DLR